EW5580 Weather Reports


time (UTC)temp
C
wind
direction
speed
KPH
gust
KPH
rain 1hr
cm
rain 24hr
cm
rain mn
cm
humidity
%
barometer
mb
20221128072132 12 270 3.2 12.9 0.00 1.73 0.00 86 991.2
20221128071530 12 197 4.8 14.5 0.00 1.73 0.00 86 991.0
20221128071031 12 260 6.4 12.9 0.00 1.73 0.00 86 991.0
20221128070530 12 243 3.2 17.7 0.00 1.73 0.00 86 991.0
20221128070028 12 259 6.4 17.7 0.00 1.73 0.00 86 990.9
20221128065527 12 273 3.2 19.3 0.00 1.73 0.00 86 990.8
20221128065026 12 254 4.8 19.3 0.00 1.73 0.00 86 990.7
20221128064527 12 265 4.8 20.9 0.00 1.73 0.00 87 990.7
20221128064027 12 258 1.6 20.9 0.00 1.73 0.00 87 990.6
20221128063524 12 238 4.8 24.1 0.00 1.73 0.00 87 990.5
20221128063026 12 259 9.7 24.1 0.00 1.73 0.00 88 990.5
20221128062523 12 237 3.2 20.9 0.00 1.73 0.00 89 990.5
20221128062021 12 263 3.2 12.9 0.00 1.73 0.00 89 990.4
20221128061531 12 264 1.6 11.3 0.00 1.73 0.00 89 990.4
20221128061024 12 256 4.8 16.1 0.00 1.73 0.00 88 990.3
20221128060519 12 244 0.0 12.9 0.00 1.73 0.00 88 990.3
20221128060032 12 202 1.6 24.1 0.00 1.73 0.00 87 990.3
20221128055518 12 272 6.4 24.1 0.00 1.73 0.00 87 990.4
20221128055017 13 244 4.8 17.7 0.00 1.73 0.00 87 990.2
20221128054518 13 243 6.4 27.4 0.00 1.73 0.00 86 990.2
20221128054018 13 259 9.7 27.4 0.00 1.73 0.00 86 989.9
20221128053513 13 276 4.8 16.1 0.00 1.73 0.00 88 990.0
20221128053013 13 254 8.0 22.5 0.00 1.73 0.00 88 989.9
20221128052512 13 232 8.0 22.5 0.00 1.73 0.00 90 990.0
20221128052013 13 265 8.0 20.9 0.00 1.73 0.00 91 990.1
20221128051509 13 248 4.8 12.9 0.00 1.73 0.00 92 989.9
20221128051009 13 259 6.4 12.9 0.00 1.73 0.00 93 989.7
20221128050508 13 17 3.2 20.9 0.00 1.73 0.00 94 989.6
20221128050006 13 259 3.2 20.9 0.00 1.73 0.00 94 989.4
20221128045504 13 250 3.2 12.9 0.00 1.73 1.73 95 989.2
20221128045005 13 309 0.0 17.7 0.00 1.73 1.73 96 989.3
20221128044504 13 231 4.8 17.7 0.00 1.73 1.73 96 989.0
20221128044006 13 282 6.4 22.5 0.00 1.73 1.73 96 988.9
20221128043504 13 256 6.4 20.9 0.00 1.73 1.73 97 988.9
20221128043002 13 273 12.9 20.9 0.00 1.73 1.73 98 989.0
20221128042504 13 281 4.8 16.1 0.00 1.73 1.73 99 989.1
20221128042001 13 253 1.6 20.9 0.03 1.73 1.73 99 989.0
20221128041600 13 195 4.8 20.9 0.05 1.73 1.73 99 989.1
20221128041059 13 272 1.6 8.0 0.08 1.73 1.73 98 989.1
20221128040559 12 282 1.6 6.4 0.10 1.73 1.73 98 989.1
20221128040059 12 277 0.0 4.8 0.15 1.73 1.73 98 989.0
20221128035558 12 277 0.0 6.4 0.20 1.73 1.73 98 989.1
20221128035057 12 279 1.6 8.0 0.25 1.73 1.73 98 989.1
20221128034616 12 192 0.0 8.0 0.28 1.73 1.73 98 989.2
20221128034055 12 206 1.6 6.4 0.30 1.73 1.73 98 989.4
20221128033556 12 259 0.0 3.2 0.41 1.73 1.73 98 989.5
20221128033059 12 288 0.0 0.0 0.46 1.73 1.73 98 989.7
20221128032554 12 288 0.0 0.0 0.58 1.73 1.73 97 989.9
20221128032053 12 288 0.0 3.2 0.66 1.70 1.70 97 989.7
20221128031554 12 288 0.0 11.3 0.69 1.68 1.68 98 990.2
20221128031051 12 310 1.6 11.3 0.71 1.65 1.65 98 990.6
20221128030652 12 268 1.6 11.3 0.71 1.63 1.63 98 990.7
20221128030053 12 245 1.6 6.4 0.66 1.55 1.55 98 990.9
20221128025551 12 305 1.6 6.4 0.64 1.52 1.52 98 990.8
20221128025053 12 288 3.2 12.9 0.58 1.45 1.45 98 990.8
20221128024551 12 277 3.2 9.7 0.58 1.42 1.42 98 990.7
20221128024050 12 244 3.2 11.3 0.64 1.40 1.40 98 990.2
20221128023548 12 196 4.8 9.7 0.58 1.32 1.32 98 990.6
20221128023058 12 155 3.2 12.9 0.53 1.27 1.27 98 991.0
20221128022547 12 204 3.2 16.1 0.38 1.12 1.12 98 991.3
20221128022047 12 267 3.2 16.1 0.30 1.04 1.04 98 991.3
20221128021557 12 198 3.2 11.3 0.23 0.97 0.97 98 991.7
20221128021043 12 249 0.0 11.3 0.20 0.94 0.94 98 992.0
20221128020542 12 224 3.2 11.3 0.18 0.91 0.91 98 992.0
20221128020046 12 211 3.2 14.5 0.15 0.89 0.89 98 991.8
20221128015541 12 202 1.6 14.5 0.15 0.89 0.89 98 991.9
20221128015040 12 211 4.8 12.9 0.15 0.89 0.89 98 992.0
20221128014542 12 271 4.8 14.5 0.10 0.84 0.84 98 992.3
20221128014038 12 248 3.2 17.7 0.03 0.76 0.76 98 993.0
20221128013539 12 202 6.4 17.7 0.00 0.71 0.71 98 992.7
20221128013041 11 27 1.6 14.5 0.00 0.71 0.71 98 993.0
20221128012535 11 207 1.6 11.3 0.00 0.71 0.71 98 993.2
20221128012034 11 246 1.6 11.3 0.00 0.71 0.71 98 993.3
20221128011533 11 207 3.2 14.5 0.00 0.71 0.71 98 993.3
20221128011031 11 236 3.2 14.5 0.00 0.71 0.71 97 993.6
20221128010530 11 269 3.2 9.7 0.00 0.71 0.71 97 993.9
20221128010035 11 234 3.2 11.3 0.00 0.71 0.71 97 994.2
20221128005529 11 172 1.6 12.9 0.00 0.71 0.71 97 994.2
20221128005027 11 289 0.0 16.1 0.03 0.71 0.71 97 994.4
20221128004531 11 221 0.0 16.1 0.03 0.71 0.71 97 994.9
20221128004025 11 195 1.6 16.1 0.03 0.71 0.71 97 995.3
20221128003524 11 206 0.0 14.5 0.03 0.71 0.71 97 995.5
20221128003023 11 225 0.0 24.1 0.03 0.71 0.71 97 995.7
20221128002522 11 190 6.4 24.1 0.03 0.71 0.71 97 995.8
20221128002024 11 231 4.8 11.3 0.03 0.71 0.71 97 995.9
20221128001521 11 205 3.2 14.5 0.03 0.71 0.71 97 996.2
20221128001022 11 206 6.4 14.5 0.03 0.71 0.71 97 996.4
20221128000518 11 202 1.6 12.9 0.03 0.71 0.71 97 996.6
20221128000020 11 55 3.2 12.9 0.03 0.71 0.71 97 996.8
20221127235518 10 248 4.8 11.3 0.03 0.71 0.71 97 996.7
20221127235016 10 122 1.6 6.4 0.03 0.71 0.71 97 996.8
20221127234516 10 321 0.0 9.7 0.03 0.71 0.71 97 997.2
20221127234014 10 168 1.6 12.9 0.03 0.71 0.71 98 997.4
20221127233513 10 217 3.2 12.9 0.05 0.71 0.71 98 997.6
20221127233014 10 245 1.6 12.9 0.08 0.71 0.71 98 998.1
20221127232513 10 197 1.6 6.4 0.08 0.71 0.71 98 998.1
20221127232012 10 219 0.0 8.0 0.10 0.71 0.71 98 998.1
20221127231513 10 219 0.0 8.0 0.13 0.71 0.71 98 998.2
20221127231012 10 248 0.0 8.0 0.18 0.71 0.71 98 998.8
20221127230516 10 248 0.0 8.0 0.18 0.71 0.71 98 999.5
20221127230015 9 269 1.6 9.7 0.23 0.71 0.71 98 998.8
20221127225513 9 61 0.0 4.8 0.28 0.71 0.71 98 998.0
20221127225010 8 209 0.0 4.8 0.30 0.69 0.69 98 998.7
20221127224508 8 246 0.0 1.6 0.33 0.69 0.69 98 999.1
20221127224007 8 202 0.0 0.0 0.36 0.69 0.69 97 999.6
20221127223506 7 202 0.0 0.0 0.38 0.66 0.66 97 1000.2
20221127223009 7 202 0.0 0.0 0.38 0.64 0.64 96 1000.6
20221127222503 7 202 0.0 0.0 0.41 0.64 0.64 96 1001.0
20221127222003 7 202 0.0 0.0 0.41 0.61 0.61 96 1001.2
20221127221500 7 202 0.0 0.0 0.41 0.58 0.58 96 1001.4
20221127221102 7 202 0.0 0.0 0.38 0.53 0.53 96 1001.6
20221127220601 7 202 0.0 0.0 0.38 0.53 0.53 96 1001.7
20221127220102 7 202 0.0 0.0 0.36 0.48 0.48 96 1001.9
20221127215558 7 202 0.0 0.0 0.33 0.46 0.46 95 1002.0
20221127215056 7 202 0.0 0.0 0.28 0.38 0.38 95 1002.2
20221127214558 7 202 0.0 0.0 0.25 0.36 0.36 95 1002.2
20221127214055 7 202 0.0 0.0 0.23 0.33 0.33 95 1002.4
20221127213555 7 202 0.0 0.0 0.20 0.28 0.28 94 1002.5
20221127213056 7 202 0.0 0.0 0.18 0.25 0.25 94 1002.6
20221127212557 7 202 0.0 0.0 0.18 0.23 0.23 94 1002.7
20221127212054 7 202 0.0 0.0 0.18 0.20 0.20 93 1002.6
20221127211555 7 202 0.0 0.0 0.15 0.18 0.18 93 1002.8
20221127211052 7 202 0.0 0.0 0.13 0.15 0.15 92 1003.0
20221127210553 7 202 0.0 0.0 0.13 0.15 0.15 92 1002.9
20221127210056 7 202 0.0 0.0 0.10 0.13 0.13 91 1002.9
20221127205654 7 202 0.0 0.0 0.10 0.13 0.13 91 1002.7
20221127205052 7 202 0.0 0.0 0.10 0.10 0.10 90 1002.9
20221127204551 7 202 0.0 0.0 0.10 0.10 0.10 90 1002.7
20221127204051 7 202 0.0 0.0 0.10 0.10 0.10 89 1002.6
20221127203550 7 202 0.0 0.0 0.08 0.08 0.08 88 1002.7
20221127203103 7 202 0.0 0.0 0.08 0.08 0.08 87 1002.5
20221127202549 8 202 0.0 0.0 0.05 0.05 0.05 85 1002.6
20221127202052 8 202 0.0 0.0 0.03 0.03 0.03 84 1002.6
20221127201549 8 202 0.0 0.0 0.03 0.03 0.03 82 1002.6
20221127201048 9 202 0.0 0.0 0.03 0.03 0.03 80 1002.6
20221127200547 9 202 0.0 0.0 0.03 0.03 0.03 76 1002.8
20221127200047 10 202 0.0 0.0 0.03 0.03 0.03 72 1003.1
20221127195546 10 202 0.0 3.2 0.00 0.00 0.00 67 1003.1
20221127195046 10 202 0.0 3.2 0.00 0.00 0.00 63 1003.3
20221127194545 10 202 0.0 3.2 0.00 0.00 0.00 59 1003.3
20221127194045 10 202 0.0 1.6 0.00 0.00 0.00 57 1003.4
20221127193546 10 202 0.0 0.0 0.00 0.00 0.00 58 1003.3
20221127193047 11 202 0.0 0.0 0.00 0.00 0.00 56 1003.5
20221127192544 11 202 0.0 0.0 0.00 0.00 0.00 54 1003.7
20221127192044 11 202 0.0 0.0 0.00 0.00 0.00 54 1003.6
20221127191544 11 202 0.0 0.0 0.00 0.00 0.00 55 1003.6
20221127191042 11 202 0.0 3.2 0.00 0.00 0.00 55 1003.6
20221127190541 11 202 0.0 3.2 0.00 0.00 0.00 54 1003.8
20221127190044 11 202 0.0 0.0 0.00 0.00 0.00 54 1003.8
20221127185541 11 202 0.0 0.0 0.00 0.00 0.00 54 1003.9
20221127185040 11 202 0.0 3.2 0.00 0.00 0.00 52 1003.9
20221127184539 11 202 0.0 3.2 0.00 0.00 0.00 52 1004.4
20221127184041 11 202 0.0 4.8 0.00 0.00 0.00 52 1004.4
20221127183540 11 202 0.0 4.8 0.00 0.00 0.00 50 1004.5
20221127183039 11 202 1.6 4.8 0.00 0.00 0.00 50 1004.4
20221127182541 11 241 0.0 4.8 0.00 0.00 0.00 51 1004.4
20221127182037 11 257 0.0 3.2 0.00 0.00 0.00 51 1004.5
20221127181551 11 257 0.0 4.8 0.00 0.00 0.00 51 1004.6
20221127181037 11 262 0.0 4.8 0.00 0.00 0.00 52 1004.8
20221127180538 11 262 0.0 0.0 0.00 0.00 0.00 51 1004.8
20221127180042 11 262 0.0 1.6 0.00 0.00 0.00 50 1004.9
20221127175534 11 262 0.0 3.2 0.00 0.00 0.00 48 1005.0
20221127175033 11 262 0.0 3.2 0.00 0.00 0.00 51 1004.9
20221127174538 11 263 0.0 4.8 0.00 0.00 0.00 49 1005.1
20221127174032 11 263 0.0 4.8 0.00 0.00 0.00 49 1005.2
20221127173530 10 259 0.0 1.6 0.00 0.00 0.00 51 1005.3
20221127173036 10 259 0.0 3.2 0.00 0.00 0.00 54 1005.4
20221127172530 10 259 0.0 3.2 0.00 0.00 0.00 56 1005.4
20221127172029 10 256 0.0 1.6 0.00 0.00 0.00 56 1005.5
20221127171533 10 256 0.0 1.6 0.00 0.00 0.00 57 1005.5
20221127171028 10 256 0.0 1.6 0.00 0.00 0.00 57 1005.8
20221127170528 10 256 0.0 0.0 0.00 0.00 0.00 56 1005.6
20221127170027 10 256 0.0 0.0 0.00 0.00 0.00 57 1005.7
20221127165527 10 256 0.0 0.0 0.00 0.00 0.00 56 1006.0
20221127165027 10 256 0.0 3.2 0.00 0.00 0.00 55 1006.2
20221127164532 10 256 0.0 3.2 0.00 0.00 0.00 53 1006.4
20221127164023 10 257 0.0 1.6 0.00 0.00 0.00 55 1006.5
20221127163523 10 254 0.0 1.6 0.00 0.00 0.00 53 1006.6
20221127163024 10 254 0.0 1.6 0.00 0.00 0.00 55 1006.7
20221127162522 10 254 0.0 0.0 0.00 0.00 0.00 57 1006.6
20221127162020 10 254 0.0 3.2 0.00 0.00 0.00 54 1006.9
20221127161530 10 254 0.0 3.2 0.00 0.00 0.00 58 1007.1
20221127161018 10 254 0.0 3.2 0.00 0.00 0.00 53 1007.1
20221127160521 10 244 0.0 3.2 0.00 0.00 0.00 54 1007.1
20221127160018 10 240 0.0 3.2 0.00 0.00 0.00 54 1007.1
20221127155516 10 240 0.0 4.8 0.00 0.00 0.00 54 1007.3
20221127155016 10 240 0.0 4.8 0.00 0.00 0.00 54 1007.5
20221127154533 10 240 0.0 4.8 0.00 0.00 0.00 54 1007.5
20221127154014 10 220 0.0 3.2 0.00 0.00 0.00 55 1007.6
20221127153513 10 193 0.0 3.2 0.00 0.00 0.00 56 1007.7
20221127153013 9 193 0.0 4.8 0.00 0.00 0.00 56 1007.7
20221127152512 9 193 1.6 4.8 0.00 0.00 0.00 57 1007.7
20221127152014 9 193 0.0 3.2 0.00 0.00 0.00 57 1007.7
20221127151509 8 193 0.0 3.2 0.00 0.00 0.00 56 1007.7
20221127151009 8 193 0.0 1.6 0.00 0.00 0.00 57 1007.8
20221127150509 8 192 0.0 0.0 0.00 0.00 0.00 59 1008.1
20221127150006 8 192 0.0 3.2 0.00 0.00 0.00 61 1007.9
20221127145505 8 192 0.0 3.2 0.00 0.00 0.00 63 1007.7
20221127145004 8 192 0.0 3.2 0.00 0.00 0.00 65 1007.8
20221127144513 7 178 0.0 3.2 0.00 0.00 0.00 66 1007.9
20221127144003 7 178 0.0 1.6 0.00 0.00 0.00 65 1008.0
20221127143502 7 178 0.0 0.0 0.00 0.00 0.00 68 1008.0
20221127143002 7 178 0.0 1.6 0.00 0.00 0.00 69 1007.9
20221127142502 7 178 0.0 1.6 0.00 0.00 0.00 71 1007.8
20221127142001 6 178 0.0 1.6 0.00 0.00 0.00 71 1007.8
20221127141605 6 178 0.0 1.6 0.00 0.00 0.00 74 1007.8
20221127141100 6 178 0.0 1.6 0.00 0.00 0.00 74 1007.9
20221127140559 6 178 0.0 1.6 0.00 0.00 0.00 74 1008.0
20221127140100 6 178 0.0 0.0 0.00 0.00 0.00 75 1007.9
20221127135558 6 178 0.0 0.0 0.00 0.00 0.00 77 1008.1
20221127135056 5 178 0.0 0.0 0.00 0.00 0.00 79 1008.1
20221127134557 5 178 0.0 0.0 0.00 0.00 0.00 80 1008.1
20221127134056 5 178 0.0 0.0 0.00 0.00 0.00 81 1008.1
20221127133557 5 178 0.0 0.0 0.00 0.00 0.00 81 1008.2
20221127133109 4 178 0.0 0.0 0.00 0.00 0.00 81 1008.4
20221127132553 3 178 0.0 0.0 0.00 0.00 0.00 82 1008.5
20221127132052 3 178 0.0 0.0 0.00 0.00 0.00 83 1008.7
20221127131550 3 178 0.0 0.0 0.00 0.00 0.00 83 1008.8
20221127131049 3 178 0.0 0.0 0.00 0.00 0.00 83 1008.9
20221127130551 2 178 0.0 0.0 0.00 0.00 0.00 84 1008.9
20221127130049 2 178 0.0 0.0 0.00 0.00 0.00 84 1009.0
20221127125548 2 178 0.0 0.0 0.00 0.00 0.00 84 1009.0
20221127125047 2 178 0.0 0.0 0.00 0.00 0.00 85 1009.0
20221127124548 2 178 0.0 0.0 0.00 0.00 0.00 84 1009.1
20221127124047 2 178 0.0 0.0 0.00 0.00 0.00 83 1009.1
20221127123547 1 178 0.0 0.0 0.00 0.00 0.00 83 1009.1
20221127123049 1 178 0.0 0.0 0.00 0.00 0.00 83 1009.2
20221127122547 1 178 0.0 0.0 0.00 0.00 0.00 84 1009.2
20221127122046 1 178 0.0 0.0 0.00 0.00 0.00 84 1009.2
20221127121602 1 178 0.0 0.0 0.00 0.00 0.00 84 1009.2
20221127121045 1 178 0.0 0.0 0.00 0.00 0.00 84 1009.2
20221127120545 1 178 0.0 0.0 0.00 0.00 0.00 84 1009.2
20221127120045 1 178 0.0 0.0 0.00 0.00 0.00 85 1009.2
20221127115544 1 178 0.0 0.0 0.00 0.00 0.00 85 1009.2
20221127115044 1 178 0.0 0.0 0.00 0.00 0.00 86 1009.3
20221127114559 1 178 0.0 0.0 0.00 0.00 0.00 86 1009.3
20221127114044 1 178 0.0 0.0 0.00 0.00 0.00 87 1009.3
20221127113544 0 178 0.0 0.0 0.00 0.00 0.00 87 1009.2
20221127113043 0 178 0.0 0.0 0.00 0.00 0.00 86 1009.2
20221127112542 0 178 0.0 0.0 0.00 0.00 0.00 86 1009.2
20221127112043 0 178 0.0 0.0 0.00 0.00 0.00 85 1009.2
20221127111542 0 178 0.0 0.0 0.00 0.00 0.00 85 1009.2
20221127111041 1 178 0.0 0.0 0.00 0.00 0.00 85 1009.1
20221127110541 1 178 0.0 0.0 0.00 0.00 0.00 84 1009.2
20221127110041 1 178 0.0 0.0 0.00 0.00 0.00 84 1009.2
20221127105540 1 178 0.0 0.0 0.00 0.00 0.00 85 1009.1
20221127105039 1 178 0.0 0.0 0.00 0.00 0.00 85 1009.2
20221127104539 1 178 0.0 0.0 0.00 0.00 0.00 85 1009.2
20221127104038 1 178 0.0 0.0 0.00 0.00 0.00 85 1009.0
20221127103538 1 178 0.0 0.0 0.00 0.00 0.00 85 1009.0
20221127103041 1 178 0.0 0.0 0.00 0.00 0.00 85 1009.0
20221127102540 1 178 0.0 0.0 0.00 0.00 0.00 85 1009.0
20221127102038 1 178 0.0 0.0 0.00 0.00 0.00 85 1009.1
20221127101542 1 178 0.0 0.0 0.00 0.00 0.00 85 1009.1
20221127101036 1 178 0.0 0.0 0.00 0.00 0.00 85 1009.1
20221127100536 1 178 0.0 0.0 0.00 0.00 0.00 85 1009.1
20221127100038 1 178 0.0 0.0 0.00 0.00 0.00 84 1009.1
20221127095534 1 178 0.0 0.0 0.00 0.00 0.00 85 1009.1
20221127095035 1 178 0.0 0.0 0.00 0.00 0.00 84 1009.1
20221127094542 1 178 0.0 0.0 0.00 0.00 0.00 84 1009.0
20221127094035 1 178 0.0 0.0 0.00 0.00 0.00 84 1009.0
20221127093534 1 178 0.0 0.0 0.00 0.00 0.00 84 1009.0
20221127093033 1 178 0.0 0.0 0.00 0.00 0.00 83 1009.0
20221127092532 1 178 0.0 0.0 0.00 0.00 0.00 83 1009.2
20221127092031 1 178 0.0 0.0 0.00 0.00 0.00 83 1009.2
20221127091532 1 178 0.0 0.0 0.00 0.00 0.00 84 1009.3
20221127091030 1 178 0.0 0.0 0.00 0.00 0.00 83 1009.2
20221127090530 1 178 0.0 0.0 0.00 0.00 0.00 83 1009.2
20221127090030 1 178 0.0 0.0 0.00 0.00 0.00 83 1009.2
20221127085529 1 178 0.0 0.0 0.00 0.00 0.00 81 1009.2
20221127085027 2 178 0.0 0.0 0.00 0.00 0.00 80 1009.4
20221127084528 2 178 0.0 0.0 0.00 0.00 0.00 80 1009.3
20221127084026 2 178 0.0 0.0 0.00 0.00 0.00 79 1009.4
20221127083525 2 178 0.0 0.0 0.00 0.00 0.00 79 1009.3
20221127083025 2 178 0.0 0.0 0.00 0.00 0.00 78 1009.3
20221127082523 2 178 0.0 0.0 0.00 0.00 0.00 77 1009.4
20221127082022 2 178 0.0 0.0 0.00 0.00 0.00 76 1009.6
20221127081525 2 178 0.0 0.0 0.00 0.00 0.00 76 1009.7
20221127081023 3 178 0.0 0.0 0.00 0.00 0.00 76 1009.7
20221127080520 3 178 0.0 0.0 0.00 0.00 0.00 75 1009.7
20221127080020 3 178 0.0 0.0 0.00 0.00 0.00 76 1009.7
20221127075518 3 178 0.0 0.0 0.00 0.00 0.00 76 1009.8
20221127075018 3 178 0.0 0.0 0.00 0.00 0.00 76 1009.7
20221127074517 3 178 0.0 1.6 0.00 0.00 0.00 76 1009.8
20221127074016 3 178 0.0 1.6 0.00 0.00 0.00 75 1009.9
20221127073516 3 178 0.0 0.0 0.00 0.00 0.00 74 1009.8
20221127073019 3 178 0.0 3.2 0.00 0.00 0.00 73 1009.8
20221127072517 4 178 0.0 6.4 0.00 0.00 0.00 72 1009.8